ENSK

Details ICAO ENSK (SKN)
Name Stokmarknes Skagen
Region Norway
Timezone Unknown (UTC+0.0)
Plans Departing 11
Arriving 20
Stats Elevation 11 ft / 3 m (AMSL)
Location 68.580787° 15.021047°
Runways 1
Magnetic Variation 6.404° E
Sunrise Unknown / Unknown
Sunset Unknown / Unknown
Advertisement - Login to hide

Runways

ID Width Length Bearing (true) Bearing (mag) Surface Threshold Offset Overrun Length
08 98 ft / 30 m 3,013 ft / 918 m 91.62° 85.22° Asphalt 410 ft / 125 m 0 ft / 0 m
26 98 ft / 30 m 3,013 ft / 918 m 271.64° 265.24° Asphalt 131 ft / 40 m 0 ft / 0 m

Map

Weather


0- 5 10 15 20 25 30 35+ Temperature / ° C

Clouds and Precipitation
Forecast for 2018-05-24 06:00 UTC. Updated 3 hours ago

Ground ~20,000 ft ~40,000 ft Winds

METAR

ENSK 240750Z 18006KT 9999 CAVOK 09/02 Q1027

TAF

Not found

Frequencies

Tower 120.45 MHz AFIS
Warning: Do not use this data for real-world aviation or navigation. No guarantee of current accuracy is given.